Flag for Germany Weather past 2 weeks in Mülheim, North Rhine-Westphalia, Germany

Now
36 °F

Clear.


Feels Like: 33 °F
Forecast: 36 / 55 °F
Wind: 3 mph from Southeast

Location: Koeln / Bonn

Current Time: Mar 6, 2015 at 1:37:09 AM

Latest Report: Mar 6, 2015 at 12:50 AM


Visibility: 10 mi

Pressure: 30.63 "Hg

Humidity: 87%

Dew point: 32 °F

Location of MülheimLocation

Historic Weather in Mülheim — Graph

°F

Mülheim temperature yesterday

Maximum temperature yesterday: 46 °F (at 3:50 PM)
Minimum temperature yesterday: 36 °F (at 6:20 AM)
Average temperature yesterday: 41 °F

Past Weeks' High & Low Weather Summary

 TemperatureHumidityPressure
High54 °F (Mar 1, 1:20 PM)100% (Feb 23, 6:20 AM)30.66 "Hg (Feb 23, 6:20 AM)
Low28 °F (Feb 28, 4:20 AM)40% (Feb 28, 3:50 PM)29.39 "Hg (Feb 21, 4:20 AM)
Average40 °F78%29.95 "Hg
* Reported Feb 19 12:20 AM — Mar 6 12:20 AM, Mülheim, Weather by CustomWeather, © 2015

Note: Actual official high and low records may vary slightly from our data, if they occured in-between our weather recording intervals... More about our weather records

Advertising

Mülheim weather history for previous 24 hours

 ConditionsComfort  
Time TempWeatherWind HumidityBarometerVisibility
12:20 AM
Fri, Mar 6
36 °FPassing clouds.3 mph87%30.63 "HgN/A
11:50 PM
Thu, Mar 5
37 °FPassing clouds.2 mph81%30.63 "HgN/A
11:20 PM37 °FPassing clouds.3 mph81%30.63 "HgN/A
10:50 PM39 °FClear.2 mph75%30.66 "Hg10 mi
10:20 PM39 °FPassing clouds.1 mph75%30.63 "HgN/A
9:20 PM41 °FClear.2 mph76%30.63 "Hg10 mi
8:50 PM43 °FClear.2 mph71%30.63 "Hg10 mi
8:20 PM43 °FClear.1 mph71%30.63 "Hg10 mi
7:50 PM43 °FClear.1 mph71%30.63 "Hg10 mi
7:20 PM43 °FPassing clouds.1 mph71%30.63 "HgN/A
6:50 PM43 °FPassing clouds.2 mph71%30.63 "HgN/A
6:20 PM45 °FPassing clouds.3 mph66%30.63 "HgN/A
5:50 PM45 °FBroken clouds.3 mph66%30.63 "HgN/A
5:20 PM45 °FBroken clouds.5 mph66%30.63 "HgN/A
4:50 PM45 °FBroken clouds.7 mph66%30.63 "HgN/A
4:20 PM45 °FPartly sunny.5 mph61%30.63 "HgN/A
3:50 PM46 °FBroken clouds.7 mph62%30.63 "HgN/A
3:20 PM45 °FPartly sunny.7 mph66%30.63 "HgN/A
2:50 PM45 °FBroken clouds.5 mph66%30.63 "HgN/A
2:20 PM45 °FBroken clouds.7 mph66%30.63 "HgN/A
1:50 PM43 °FBroken clouds.9 mph76%30.63 "HgN/A
1:20 PM43 °FPartly sunny.7 mph76%30.66 "HgN/A
12:50 PM41 °FPartly sunny.9 mph81%30.66 "HgN/A
12:20 PM41 °FBroken clouds.9 mph81%30.66 "HgN/A
11:50 AM41 °FBroken clouds.12 mph81%30.66 "HgN/A
11:20 AM41 °FPartly sunny.9 mph81%30.66 "HgN/A
10:50 AM41 °FPartly sunny.8 mph81%30.66 "HgN/A
10:20 AM41 °FBroken clouds.8 mph87%30.66 "HgN/A
9:50 AM39 °FBroken clouds.9 mph93%30.66 "Hg6 mi
9:20 AM39 °FPartly sunny.7 mph87%30.66 "Hg6 mi
8:50 AM39 °FPartly sunny.6 mph87%30.63 "Hg6 mi
8:20 AM37 °FPartly sunny.8 mph93%30.63 "HgN/A
7:50 AM37 °FPartly sunny.7 mph93%30.63 "HgN/A
7:20 AM37 °FPartly sunny.8 mph93%30.60 "HgN/A
6:50 AM37 °FPassing clouds.8 mph93%30.60 "HgN/A
6:20 AM36 °FPassing clouds.9 mph93%30.60 "HgN/A
5:20 AM37 °FPassing clouds.6 mph87%30.60 "HgN/A
4:20 AM39 °FPartly cloudy.12 mph87%30.57 "HgN/A
3:50 AM39 °FPartly cloudy.10 mph87%30.57 "HgN/A
2:50 AM39 °FPartly cloudy.9 mph87%30.54 "HgN/A
2:20 AM39 °FPartly cloudy.10 mph87%30.54 "HgN/A
1:50 AM39 °FPartly cloudy.10 mph87%30.54 "HgN/A
1:20 AM39 °FScattered showers. Passing clouds.8 mph81%30.51 "HgN/A
Weather by CustomWeather, © 2015

See weather overviewHow to use our weather pages